[[{"header":{"parameterUnit":"m.s-1","parameterCategory":1,"la1":30.2991,"la2":30.254,"lo1":-89.0895,"lo2":-89.0444,"dy":0.0017,"dx":0.0017,"nx":28,"ny":28,"refTime":"2024-07-01T03:00:00:Z","depth":0,"parameterNumber":2,"parameterNumberName":"U-component_of_WINDS"},"data":[0,0,0,0,0,0,0,0,0,0,0,0,0,0,0,0,0,0,0,0,0,0,0,0,0,0,0,0,0,0,0,0,0,0,0,0,0,0,0,0,0,0,0,0,0,0,0,0,0,0,0,0,0,0,0,0,0,0,0.7791,0.7794,0,0.8011,0.8014,0.8016,0.8056,0.8054,0.8053,0.8051,0.828,0.8288,0.8296,0,0,0,0,0,0,0,0,0,0,0,0,0,0.741,0.7417,0.7791,0.7794,0.7797,0.8011,0.8014,0.8017,0.8057,0.8054,0.8052,0.805,0.8278,0.8287,0.8296,0,0,0,0,0,0,0,0,0,0,0,0,0,0.7598,0.7419,0.7791,0.7842,0.7849,0.801,0.8014,0.8018,0.8057,0.8054,0.8052,0.8049,0.8275,0.8286,0.8298,0.8424,0,0,0.8333,0.8338,0,0,0,0,0,0,0,0,0.7587,0.7611,0.7832,0.7839,0.7847,0.8003,0.7964,0.8154,0.8058,0.7978,0.8051,0.8048,0.8191,0.8209,0.8256,0.8435,0.8445,0.8334,0.8341,0.8346,0.835,0,0,0,0,0,0,0,0.7574,0.7602,0.7878,0.7835,0.7844,0.7856,0.7879,0.8,0.8097,0.7985,0.7988,0.8014,0.8194,0.8245,0.8262,0.8448,0.8334,0.8344,0.8352,0.8356,0.8742,0.8745,0,0,0,0,0,0,0.7551,0.7591,0.7871,0.7885,0.7707,0.7865,0.7891,0.7956,0.8096,0.8114,0.8016,0.8015,0.8226,0.8248,0.827,0.8427,0.8346,0.8357,0.8364,0.8738,0.8742,0.8746,0,0,0,0,0,0,0.7543,0.7576,0.7862,0.7739,0.7776,0.7874,0.7947,0.7962,0.8012,0.8119,0.8137,0.8049,0.8225,0.8254,0.8385,0.8436,0.8363,0.8373,0.8735,0.874,0.8744,0.8742,0,0,0,0,0,0,0.7532,0.7572,0.762,0.774,0.7783,0.7972,0.795,0.7968,0.8032,0.8033,0.8155,0.8173,0.8225,0.8368,0.8397,0.8451,0.8382,0.8731,0.8737,0.8743,0.8738,0.8747,0.8754,0,0,0,0,0,0.7518,0.7612,0.7623,0.7656,0.7845,0.7975,0.8,0.8057,0.8036,0.8086,0.8154,0.8169,0.8426,0.8381,0.8414,0.8472,0.8728,0.8735,0.8742,0.8735,0.8745,0.8753,0,0,0,0,0,0,0.7497,0.7629,0.7642,0.7777,0.7864,0.7982,0.8046,0.8065,0.8162,0.8158,0.8226,0.8254,0.8381,0.844,0.8388,0.8602,0.8575,0.859,0.8559,0.8569,0.8577,0.8559,0.8392,0,0,0,0,0,0.7508,0.7602,0.7712,0.7821,0.7864,0.7947,0.8006,0.8042,0.8136,0.8174,0.8252,0.8344,0.8445,0.8511,0.861,0.8747,0.8775,0.8804,0.8811,0.8817,0.8829,0.8906,0.892,0.877,0.877,0.8769,0,0,0.7532,0.7616,0.7671,0.7819,0.7891,0.7988,0.7978,0.8081,0.8154,0.819,0.8318,0.8379,0.8486,0.8621,0.8684,0.8674,0.8876,0.8826,0.883,0.8839,0.8915,0.8929,0.8942,0.8775,0.8774,0.8773,0,0,0.7625,0.7698,0.7796,0.7868,0.7977,0.8032,0.8055,0.817,0.8211,0.8341,0.837,0.8458,0.8631,0.8706,0.8767,0.8889,0.8907,0.892,0.8959,0.9034,0.9046,0.9056,0.91,0.9114,0.8931,0.8931,0.8931,0,0.7642,0.7787,0.7845,0.7946,0.8011,0.8047,0.8148,0.8216,0.8352,0.8396,0.8382,0.86,0.8675,0.8827,0.8857,0.8905,0.8935,0.8906,0.9039,0.9051,0.9062,0.9104,0.912,0.8932,0.8932,0.8931,0.8931,0,0.7802,0.7903,0.797,0.8098,0.8171,0.8271,0.8345,0.8412,0.8442,0.8499,0.8631,0.8721,0.8839,0.8879,0.891,0.9036,0.9026,0.9025,0.9,0.9076,0.9116,0.9133,0.8933,0.8932,0.8932,0.8932,0,0,0.7888,0.8047,0.807,0.8129,0.8252,0.8332,0.8435,0.8549,0.8605,0.8698,0.8786,0.8932,0.8931,0.9,0.904,0.9105,0.9196,0.9096,0.91,0.9111,0.9341,0.9341,0.9358,0.9208,0.9212,0.9215,0.9332,0,0.7995,0.8178,0.8233,0.8387,0.8481,0.8517,0.8607,0.8692,0.8748,0.8837,0.89,0.9002,0.8993,0.9035,0.9102,0.917,0.9243,0.9163,0.9292,0.9296,0.9263,0.938,0.938,0.9486,0.9348,0.9351,0.9353,0,0.8144,0.8238,0.8401,0.8512,0.8553,0.8633,0.8742,0.8826,0.8925,0.8961,0.9038,0.9072,0.9182,0.9151,0.9304,0.9248,0.9305,0.9346,0.9352,0.9366,0.9328,0.9396,0.9521,0.9537,0.9379,0.9377,0.9375,0,0.8189,0.8357,0.8476,0.8525,0.8658,0.8713,0.8771,0.8867,0.8932,0.9028,0.9071,0.9179,0.9238,0.9322,0.9385,0.9356,0.9533,0.9506,0.9566,0.9564,0.9601,0.9598,0.9736,0.9638,0.9638,0.9638,0.9637,0,0.8303,0.8401,0.8498,0.8571,0.8682,0.8746,0.8855,0.8915,0.9,0.9086,0.9125,0.9205,0.9284,0.9376,0.9426,0.9545,0.9572,0.9604,0.9617,0.9601,0.9596,0.9638,0.9632,0.9642,0.9641,0.964,0.964,0,0.8371,0.844,0.8572,0.8687,0.8718,0.8795,0.8894,0.8967,0.9024,0.9133,0.9163,0.9253,0.9363,0.9434,0.9575,0.9608,0.9738,0.9749,0.9704,0.971,0.9765,0.9758,0.9935,0.9961,0.9846,0.9847,0.9848,0,0.8438,0.8515,0.8637,0.8697,0.8755,0.8851,0.8918,0.8984,0.9051,0.9169,0.9228,0.934,0.9433,0.9607,0.9686,0.9794,0.9807,0.9861,0.9823,0.9804,0.9807,0.9801,0.9809,0.9867,0.9868,0.9868,0.9869,0,0.855,0.8581,0.8674,0.878,0.8858,0.8945,0.9032,0.9079,0.916,0.9235,0.9346,0.9418,0.9561,0.9671,0.9786,0.9848,0.9872,0.988,0.99,0.9884,0.9854,0.987,0.972,0.9876,0.9875,0.9875,0.9874,0.9874,0.862,0.8689,0.8786,0.8889,0.8961,0.9042,0.9116,0.9182,0.9276,0.9396,0.943,0.9547,0.9645,0.9801,0.9865,0.9958,0.9951,0.9979,0.9987,0.9992,0.9992,0.984,0.9979,0.9979,0.9979,0.9979,0.9979,0,0.8733,0.8797,0.8891,0.9011,0.9092,0.9108,0.9205,0.9272,0.9374,0.9462,0.9552,0.9681,0.9789,0.9877,0.9988,1.0045,1.006,1.0072,1.0068,1.0082,0.9992,0.9963,1.0059,1.0059,1.0059,1.0059,1.0059,1.0059,0.8801,0.8919,0.8961,0.9115,0.918,0.9293,0.9347,0.9422,0.9493,0.9634,0.9723,0.9779,0.9868,0.9986,1.0086,1.0109,1.0148,1.0158,1.0184,1.0098,1.0089,1.008,1.0054,1.0167,1.0167,1.0266,1.0267,1.0268]},{"header":{"parameterUnit":"m.s-1","parameterCategory":1,"la1":30.2991,"la2":30.254,"lo1":-89.0895,"lo2":-89.0444,"dy":0.0017,"dx":0.0017,"nx":28,"ny":28,"refTime":"2024-07-01T03:00:00:Z","depth":0,"parameterNumber":3,"parameterNumberName":"V-component_of_WINDS"},"data":[0,0,0,0,0,0,0,0,0,0,0,0,0,0,0,0,0,0,0,0,0,0,0,0,0,0,0,0,0,0,0,0,0,0,0,0,0,0,0,0,0,0,0,0,0,0,0,0,0,0,0,0,0,0,0,0,0,0,2.0785,2.0786,0,2.0881,2.0883,2.0884,2.0798,2.0795,2.0792,2.0788,2.0886,2.0892,2.0898,0,0,0,0,0,0,0,0,0,0,0,0,0,2.0521,2.0527,2.0784,2.0786,2.0787,2.0881,2.0883,2.0884,2.0799,2.0795,2.0791,2.0787,2.0884,2.0891,2.0898,0,0,0,0,0,0,0,0,0,0,0,0,0,2.0629,2.0528,2.0784,2.0756,2.0754,2.0881,2.0883,2.0884,2.08,2.0795,2.0789,2.0785,2.0882,2.089,2.0899,2.1058,0,0,2.0926,2.093,0,0,0,0,0,0,0,0,2.0623,2.0638,2.0759,2.0758,2.0757,2.0822,2.0826,2.0943,2.0801,2.0783,2.0788,2.0782,2.0869,2.0879,2.0908,2.1063,2.1067,2.0927,2.0932,2.0936,2.0938,0,0,0,0,0,0,0,2.0615,2.0634,2.0823,2.0761,2.0759,2.0737,2.0746,2.0847,2.0854,2.0784,2.0778,2.0791,2.0867,2.09,2.091,2.1068,2.0926,2.0934,2.094,2.0943,2.1352,2.1357,0,0,0,0,0,0,2.0611,2.0628,2.082,2.0826,2.0675,2.0746,2.0756,2.0807,2.0853,2.0855,2.0795,2.0786,2.0888,2.09,2.0913,2.1098,2.0936,2.0944,2.0949,2.1346,2.1353,2.1359,0,0,0,0,0,0,2.0606,2.0629,2.0816,2.0725,2.0747,2.0756,2.0813,2.0811,2.0844,2.0861,2.0862,2.0827,2.0884,2.0901,2.1021,2.11,2.0948,2.0956,2.134,2.1348,2.1356,2.1472,0,0,0,0,0,0,2.0599,2.0628,2.069,2.0727,2.0753,2.0924,2.0818,2.0817,2.0859,2.0849,2.0892,2.0894,2.0881,2.1009,2.103,2.1109,2.0963,2.1333,2.1343,2.1353,2.1461,2.1483,2.1502,0,0,0,0,0,2.059,2.072,2.0694,2.0717,2.083,2.0929,2.0943,2.0927,2.0866,2.0927,2.0937,2.0892,2.1089,2.1022,2.1045,2.1128,2.1327,2.134,2.1353,2.1452,2.1479,2.1501,0,0,0,0,0,0,2.0692,2.0724,2.0696,2.0842,2.0883,2.0915,2.0991,2.0957,2.1016,2.1004,2.098,2.0991,2.1117,2.1135,2.106,2.1282,2.1198,2.1216,2.1265,2.1291,2.1311,2.1303,2.097,0,0,0,0,0,2.0732,2.081,2.0834,2.096,2.0982,2.0984,2.1026,2.1009,2.1051,2.1068,2.1088,2.1129,2.1199,2.1247,2.1313,2.1463,2.1469,2.1532,2.1552,2.1569,2.1584,2.1659,2.1686,2.14,2.14,2.14,0,0,2.0814,2.0841,2.0893,2.0981,2.1011,2.1091,2.0999,2.1089,2.1146,2.1082,2.1196,2.1211,2.1256,2.1391,2.1451,2.141,2.1664,2.1585,2.1598,2.1604,2.1675,2.1702,2.1726,2.1409,2.1407,2.1406,0,0,2.1004,2.1035,2.1141,2.1172,2.1218,2.1217,2.1243,2.1279,2.1286,2.1401,2.1352,2.142,2.1544,2.1575,2.1608,2.1806,2.1764,2.1828,2.1934,2.2008,2.2031,2.2051,2.2117,2.2141,2.1843,2.1844,2.1844,0,2.1101,2.122,2.12,2.1291,2.133,2.1274,2.1379,2.1411,2.1477,2.1503,2.1456,2.1606,2.1633,2.1771,2.1819,2.1849,2.1874,2.1822,2.2029,2.2049,2.2067,2.213,2.2155,2.1851,2.185,2.1849,2.1848,0,2.1334,2.1417,2.1497,2.156,2.1607,2.1706,2.1698,2.1749,2.1727,2.173,2.1844,2.1874,2.1942,2.1975,2.1956,2.211,2.2082,2.2033,2.1948,2.2102,2.216,2.2184,2.1861,2.1858,2.1856,2.1854,0,0,2.1593,2.164,2.167,2.1695,2.174,2.1803,2.1897,2.1964,2.2005,2.2052,2.2127,2.2231,2.2184,2.2221,2.2204,2.227,2.2418,2.2212,2.2212,2.2246,2.2585,2.2619,2.2647,2.2392,2.2397,2.24,2.2579,0,2.1781,2.1944,2.1927,2.2081,2.2155,2.2101,2.2182,2.2217,2.2222,2.2284,2.2289,2.2361,2.2296,2.2317,2.238,2.2387,2.2485,2.2374,2.2459,2.2462,2.2446,2.2679,2.2716,2.2884,2.2603,2.2607,2.2609,0,2.2024,2.2076,2.2238,2.2266,2.2297,2.237,2.2427,2.2488,2.2525,2.2524,2.2563,2.2534,2.2624,2.2539,2.2662,2.2586,2.262,2.2628,2.2634,2.2639,2.2543,2.2686,2.2938,2.2962,2.2646,2.2643,2.264,0,2.219,2.2302,2.2412,2.2436,2.2474,2.2525,2.2544,2.2576,2.2615,2.2665,2.2689,2.275,2.2782,2.2828,2.2814,2.2754,2.2938,2.2853,2.2936,2.2937,2.2976,2.2973,2.3233,2.3004,2.3003,2.3003,2.3002,0,2.2401,2.2501,2.2486,2.2554,2.2662,2.264,2.2748,2.2759,2.2788,2.2854,2.2812,2.2875,2.2855,2.2916,2.2906,2.3006,2.3022,2.3021,2.3017,2.3023,2.3023,2.3043,2.303,2.301,2.3008,2.3007,2.3006,0,2.2605,2.26,2.2715,2.274,2.2749,2.2828,2.2848,2.291,2.291,2.2994,2.3013,2.3013,2.3083,2.3074,2.3152,2.3145,2.3268,2.3252,2.3256,2.3251,2.3334,2.3324,2.3613,2.3647,2.3399,2.3401,2.3403,0,2.2739,2.2814,2.2846,2.2887,2.2908,2.2976,2.3014,2.2995,2.3037,2.3082,2.3138,2.3203,2.3254,2.3367,2.3373,2.3431,2.3413,2.351,2.3422,2.3424,2.3409,2.3404,2.3409,2.3527,2.353,2.3532,2.3534,0,2.2974,2.2967,2.3025,2.3081,2.3129,2.3173,2.3212,2.3248,2.3231,2.328,2.335,2.3389,2.3467,2.3531,2.3585,2.3601,2.3564,2.3562,2.3583,2.3589,2.3587,2.3585,2.3299,2.3555,2.3553,2.3551,2.355,2.3549,2.3145,2.3207,2.3237,2.3302,2.3329,2.3366,2.3423,2.343,2.3488,2.3549,2.3533,2.3611,2.3642,2.371,2.3732,2.3791,2.3755,2.3788,2.3795,2.3803,2.3811,2.358,2.3801,2.3801,2.38,2.3799,2.3799,0,2.3374,2.339,2.345,2.3505,2.3555,2.3516,2.3556,2.36,2.3668,2.37,2.375,2.3828,2.3889,2.3899,2.3956,2.4001,2.3984,2.4016,2.4011,2.4014,2.3842,2.3815,2.4028,2.4028,2.4027,2.4027,2.4027,2.4027,2.3499,2.3601,2.3596,2.3709,2.3724,2.3799,2.3825,2.3857,2.3882,2.397,2.402,2.4026,2.4048,2.4105,2.4158,2.4159,2.418,2.4218,2.4212,2.405,2.4027,2.4005,2.398,2.4223,2.4224,2.4379,2.438,2.4381]}]]